Houghton Lake, MI

9:33 AM EDT on August 25, 2016 (GMT -0400)
Roscommon County

Weather History for KHTL - April, 2014

Change the Weather History Date:

Friday, April 4, 2014

  Actual Average Record
Temperature  
Mean Temperature 32 °F 37 °F  
Max Temperature 36 °F 48 °F 79 °F (1921)
Min Temperature 27 °F 26 °F 3 °F (1926)
Degree Days  
Heating Degree Days 33 28  
Month to date heating degree days 127 114  
Since 1 July heating degree days 7981 7099  
Cooling Degree Days 0 0  
Month to date cooling degree days 0 0  
Year to date cooling degree days 0 0  
Moisture  
Dew Point 31 °F    
Average Humidity 85    
Maximum Humidity 100    
Minimum Humidity 69    
Precipitation  
Precipitation 0.59 in 0.08 in 0.83 in (1928)
Month to date precipitation 0.63 0.33  
Year to date precipitation 4.58 4.89  
Snow  
Snow 0.50 in 0.20 in 6.70 in (1996)
Month to date snowfall 0.5 0.9  
Since 1 July snowfall 58.9 63.7  
Snow Depth 5.00 in    
Sea Level Pressure  
Sea Level Pressure 29.51 in    
Wind  
Wind Speed 12 mph (SSE)    
Max Wind Speed 24 mph    
Max Gust Speed 37 mph    
Visibility 4 miles    
Events Rain , Snow    
T = Trace of Precipitation, MM = Missing Value Source: NWS Daily Summary

Daily Weather History Graph

Daily Weather History Graph

Search for Another Location

Airport or City:

Trip Planner

Search our weather history database for the weather conditions in past years. The results will help you decide how hot, cold, wet, or windy it might be!

Date:

Astronomy

Apr. 04, 2014 Rise Set
Actual Time 7:14 AM EDT 8:09 PM EDT
Civil Twilight 6:44 AM EDT 8:39 PM EDT
Nautical Twilight 6:09 AM EDT 9:14 PM EDT
Astronomical Twilight 5:33 AM EDT 9:51 PM EDT
Moon 10:22 AM EDT (4/4) 12:35 AM EDT (4/4)
Length of Visible Light 13h 54m
Length of Day
12h 55m
Waxing Crescent, 25% of the Moon is Illuminated
Apr 4
Waxing Crescent
Apr 7
First Quarter
Apr 15
Full
Apr 22
Last Quarter
Apr 29
New

Hourly Weather History & Observations

Time (EDT) Temp. Windchill Dew Point Humidity Pressure Visibility Wind Dir Wind Speed Gust Speed Precip Events Conditions
12:53 AM 33.1 °F 24.4 °F 24.1 °F 70% 29.88 in 10.0 mi East 11.5 mph - N/A   Overcast
1:53 AM 33.1 °F 23.4 °F 24.1 °F 70% 29.83 in 10.0 mi East 13.8 mph - N/A   Overcast
2:53 AM 33.1 °F 23.9 °F 24.1 °F 70% 29.78 in 10.0 mi ESE 12.7 mph - N/A   Mostly Cloudy
3:31 AM 34.0 °F 24.2 °F 24.1 °F 67% 29.71 in 10.0 mi East 15.0 mph 27.6 mph N/A   Overcast
3:53 AM 34.0 °F 24.2 °F 25.0 °F 70% 29.76 in 10.0 mi ESE 15.0 mph - N/A   Overcast
4:53 AM 34.0 °F 25.5 °F 25.0 °F 70% 29.75 in 10.0 mi ESE 11.5 mph - N/A   Overcast
5:36 AM 32.0 °F 24.2 °F 28.9 °F 88% 29.69 in 3.0 mi ESE 9.2 mph - N/A   Overcast
5:47 AM 30.2 °F 20.8 °F 30.2 °F 100% 29.67 in 2.5 mi ESE 11.5 mph - N/A   Overcast
5:53 AM 30.9 °F 21.2 °F 30.0 °F 96% 29.71 in 3.0 mi ESE 12.7 mph - N/A   Overcast
6:07 AM 30.9 °F 21.7 °F 30.0 °F 96% 29.65 in 3.0 mi ESE 11.5 mph - N/A   Overcast
6:48 AM 30.2 °F 21.3 °F 30.2 °F 100% 29.60 in 5.0 mi ESE 10.4 mph - N/A   Overcast
6:53 AM 30.9 °F 21.2 °F 30.0 °F 96% 29.63 in 5.0 mi East 12.7 mph - N/A   Overcast
7:53 AM 30.9 °F 22.2 °F 30.0 °F 96% 29.62 in 4.0 mi ESE 10.4 mph - N/A   Overcast
8:06 AM 30.9 °F 22.8 °F 30.0 °F 96% 29.58 in 2.0 mi ESE 9.2 mph - N/A   Overcast
8:36 AM 32.0 °F 23.0 °F 30.0 °F 92% 29.56 in 4.0 mi ESE 11.5 mph - N/A   Overcast
8:53 AM 32.0 °F 24.2 °F 30.0 °F 92% 29.60 in 2.0 mi ESE 9.2 mph - N/A   Overcast
9:06 AM 32.0 °F 22.5 °F 30.0 °F 92% 29.54 in 2.0 mi ESE 12.7 mph 20.7 mph N/A   Overcast
9:17 AM 32.0 °F 22.1 °F 30.0 °F 92% 29.53 in 1.5 mi ESE 13.8 mph - N/A   Overcast
9:38 AM 32.0 °F 23.0 °F 30.9 °F 96% 29.50 in 2.0 mi ESE 11.5 mph - N/A   Overcast
9:50 AM 32.0 °F 24.2 °F 30.2 °F 93% 29.51 in 4.0 mi ESE 9.2 mph - N/A   Overcast
9:53 AM 32.0 °F 22.5 °F 30.9 °F 96% 29.54 in 4.0 mi ESE 12.7 mph 18.4 mph N/A   Overcast
10:23 AM 32.0 °F 22.5 °F 30.9 °F 96% 29.48 in 1.8 mi ESE 12.7 mph - N/A   Overcast
10:29 AM 32.0 °F 22.5 °F 30.9 °F 96% 29.48 in 1.2 mi SE 12.7 mph - 0.00 in   Overcast
10:36 AM 32.0 °F 24.8 °F 30.9 °F 96% 29.47 in 1.0 mi ESE 8.1 mph - 0.02 in   Overcast
10:38 AM 32.0 °F 24.2 °F 32.0 °F 100% 29.47 in 1.2 mi ESE 9.2 mph - 0.02 in Rain Light Freezing Rain
10:42 AM 32.0 °F 25.6 °F 32.0 °F 100% 29.47 in 2.0 mi Variable 6.9 mph - 0.02 in Rain Light Freezing Rain
10:53 AM 32.0 °F 23.6 °F 32.0 °F 100% 29.50 in 2.5 mi ESE 10.4 mph - 0.03 in Rain Light Freezing Rain
11:05 AM 32.0 °F 24.2 °F 32.0 °F 100% 29.46 in 3.0 mi ESE 9.2 mph - 0.01 in Rain Light Freezing Rain
11:16 AM 33.1 °F 25.5 °F 32.0 °F 96% 29.44 in 3.0 mi ESE 9.2 mph - 0.02 in Rain Light Rain
11:49 AM 33.8 °F 27.7 °F 32.0 °F 93% 29.44 in 6.0 mi ESE 6.9 mph - 0.04 in Rain Light Rain
11:53 AM 33.1 °F 26.9 °F 32.0 °F 96% 29.48 in 6.0 mi SE 6.9 mph - 0.04 in Rain Light Rain
12:23 PM 33.1 °F - 32.0 °F 96% 29.46 in 2.5 mi Calm Calm - 0.04 in Rain Rain
12:28 PM 33.1 °F - 32.0 °F 96% 29.45 in 1.5 mi Calm Calm - 0.06 in Rain Heavy Rain
12:46 PM 33.1 °F 28.7 °F 32.0 °F 96% 29.44 in 1.8 mi North 4.6 mph - 0.15 in Rain Rain
12:51 PM 33.8 °F 30.8 °F 32.0 °F 93% 29.45 in 2.0 mi NNW 3.5 mph - 0.17 in Rain Rain
12:53 PM 33.1 °F 30.0 °F 32.0 °F 96% 29.48 in 2.0 mi North 3.5 mph - 0.17 in Rain Rain
1:00 PM 33.1 °F 30.0 °F 32.0 °F 96% 29.44 in 2.0 mi NE 3.5 mph - 0.04 in Rain Rain
1:11 PM 33.1 °F 28.7 °F 32.0 °F 96% 29.45 in 4.0 mi East 4.6 mph - 0.07 in Rain Rain
1:19 PM 33.1 °F 30.0 °F 32.0 °F 96% 29.44 in 4.0 mi NE 3.5 mph - 0.09 in Rain Rain
1:31 PM 34.0 °F - 32.0 °F 92% 29.44 in 2.5 mi Calm Calm - 0.12 in Rain Rain
1:36 PM 34.0 °F 29.8 °F 33.1 °F 96% 29.44 in 3.0 mi ENE 4.6 mph - 0.14 in Rain Rain
1:53 PM 34.0 °F 28.0 °F 33.1 °F 96% 29.46 in 3.0 mi East 6.9 mph - 0.20 in Rain Heavy Rain
2:09 PM 34.0 °F 26.0 °F 33.1 °F 96% 29.39 in 3.0 mi East 10.4 mph - 0.08 in Rain Rain
2:53 PM 34.0 °F 25.0 °F 33.1 °F 96% 29.36 in 10.0 mi East 12.7 mph - 0.14 in Rain Light Rain
3:53 PM 34.0 °F 31.0 °F 33.1 °F 96% 29.41 in 10.0 mi SW 3.5 mph - 0.00 in   Overcast
4:11 PM 34.0 °F - 34.0 °F 100% 29.36 in 1.8 mi Calm Calm - N/A   Overcast
4:20 PM 35.1 °F 32.2 °F 34.0 °F 96% 29.36 in 1.5 mi South 3.5 mph - N/A   Overcast
4:28 PM 35.1 °F 30.1 °F 34.0 °F 96% 29.36 in 1.8 mi South 5.8 mph - N/A   Overcast
4:40 PM 35.1 °F 31.0 °F 34.0 °F 96% 29.36 in 1.5 mi South 4.6 mph - N/A   Overcast
4:49 PM 35.6 °F 31.7 °F 33.8 °F 93% 29.36 in 1.8 mi SSW 4.6 mph - N/A   Overcast
4:53 PM 35.1 °F 31.0 °F 34.0 °F 96% 29.40 in 2.0 mi South 4.6 mph - 0.00 in Rain Light Rain
5:02 PM 35.1 °F 30.1 °F 34.0 °F 96% 29.37 in 4.0 mi South 5.8 mph - 0.00 in   Overcast
5:14 PM 35.1 °F 28.6 °F 34.0 °F 96% 29.37 in 2.5 mi SSW 8.1 mph - 0.00 in   Overcast
5:21 PM 35.1 °F 28.6 °F 35.1 °F 100% 29.37 in 3.0 mi SSW 8.1 mph - 0.00 in   Overcast
5:31 PM 35.1 °F 28.6 °F 35.1 °F 100% 29.37 in 3.0 mi South 8.1 mph - 0.00 in   Overcast
5:53 PM 35.1 °F 29.3 °F 35.1 °F 100% 29.41 in 4.0 mi SSW 6.9 mph - 0.00 in   Overcast
6:17 PM 35.1 °F 29.3 °F 34.0 °F 96% 29.38 in 2.5 mi SW 6.9 mph - N/A   Overcast
6:29 PM 35.1 °F 28.6 °F 34.0 °F 96% 29.38 in 3.0 mi SW 8.1 mph - N/A   Overcast
6:36 PM 36.0 °F 28.5 °F 34.0 °F 93% 29.38 in 3.0 mi SW 10.4 mph - N/A   Overcast
6:49 PM 35.6 °F 27.1 °F 35.6 °F 100% 29.39 in 3.0 mi WSW 12.7 mph - N/A   Overcast
6:53 PM 36.0 °F 27.1 °F 34.0 °F 93% 29.42 in 2.5 mi WSW 13.8 mph - N/A   Overcast
7:07 PM 36.0 °F 27.1 °F 34.0 °F 93% 29.40 in 4.0 mi WSW 13.8 mph - N/A   Overcast
7:31 PM 35.1 °F 24.5 °F 33.1 °F 92% 29.41 in 10.0 mi West 18.4 mph 25.3 mph N/A   Overcast
7:53 PM 34.0 °F 23.0 °F 30.9 °F 89% 29.46 in 10.0 mi West 18.4 mph 25.3 mph N/A   Overcast
8:05 PM 33.1 °F 23.0 °F 30.9 °F 92% 29.43 in 1.8 mi West 15.0 mph - 0.00 in Snow Light Snow
8:07 PM 33.1 °F 22.6 °F 30.9 °F 92% 29.43 in 1.0 mi West 16.1 mph 24.2 mph 0.00 in Snow Light Snow
8:17 PM 33.1 °F 22.6 °F 30.9 °F 92% 29.44 in 1.2 mi West 16.1 mph 21.9 mph 0.00 in Snow Light Snow
8:27 PM 33.1 °F 23.9 °F 30.9 °F 92% 29.45 in 1.8 mi WNW 12.7 mph 26.5 mph 0.01 in Snow Light Snow
8:29 PM 33.1 °F 21.5 °F 30.9 °F 92% 29.45 in 2.0 mi WNW 19.6 mph 26.5 mph 0.01 in Snow Light Snow
8:53 PM 32.0 °F 22.1 °F 30.0 °F 92% 29.52 in 3.0 mi NW 13.8 mph 21.9 mph 0.01 in Snow Light Snow
9:03 PM 32.0 °F 21.2 °F 28.9 °F 88% 29.49 in 8.0 mi WNW 16.1 mph 27.6 mph 0.00 in Snow Light Snow
9:37 PM 32.0 °F 22.1 °F 28.9 °F 88% 29.52 in 2.5 mi WNW 13.8 mph 23.0 mph 0.00 in Snow Light Snow
9:41 PM 30.9 °F 21.2 °F 30.0 °F 96% 29.52 in 1.5 mi WNW 12.7 mph - 0.00 in Snow Light Snow
9:47 PM 30.2 °F 18.1 °F 30.2 °F 100% 29.52 in 1.8 mi WNW 18.4 mph 25.3 mph 0.00 in Snow Light Snow
9:49 PM 30.2 °F 18.9 °F 30.2 °F 100% 29.52 in 2.0 mi WNW 16.1 mph 25.3 mph 0.00 in Snow Light Snow
9:53 PM 30.9 °F 22.8 °F 30.0 °F 96% 29.57 in 2.5 mi NW 9.2 mph 24.2 mph 0.00 in Snow Light Snow
10:05 PM 30.9 °F 20.2 °F 30.0 °F 96% 29.54 in 1.8 mi WNW 15.0 mph 23.0 mph 0.00 in Snow Light Snow
10:11 PM 30.9 °F 18.1 °F 28.9 °F 92% 29.54 in 2.5 mi WNW 21.9 mph 28.8 mph 0.00 in Snow Light Snow
10:25 PM 30.9 °F 19.8 °F 28.9 °F 92% 29.56 in 1.5 mi WNW 16.1 mph 24.2 mph 0.00 in Snow Light Snow
10:32 PM 30.9 °F 20.7 °F 28.9 °F 92% 29.56 in 2.0 mi WNW 13.8 mph 23.0 mph 0.00 in Snow Light Snow
10:36 PM 30.9 °F 20.2 °F 28.9 °F 92% 29.56 in 3.0 mi NW 15.0 mph 23.0 mph 0.00 in Snow Light Snow
10:43 PM 30.9 °F 19.8 °F 28.0 °F 89% 29.57 in 3.0 mi WNW 16.1 mph 24.2 mph 0.00 in Snow Light Snow
10:53 PM 30.0 °F 16.9 °F 27.0 °F 88% 29.62 in 3.0 mi WNW 21.9 mph 29.9 mph 0.00 in Snow Light Snow
11:53 PM 28.9 °F 16.1 °F 25.0 °F 85% 29.67 in 6.0 mi NW 19.6 mph 36.8 mph 0.00 in Snow Light Snow